Location: Barruelo
(41.2448°N, 3.8231°W)
Time: 22:28:06
(UTC+00:00)

Hubble Space Telescope - Pass Details

Date: 11 December 2025
Orbit: 479 x 481 km, 28.5° (Epoch: 14 January)

Event Time Altitude Azimuth Distance (km) Brightness Sun altitude
Rises 18:14:20 0° 223° (SW) 2,522 5.3 -16.0°
Reaches altitude 10° 18:18:36 10° 177° (S) 1,644 3.4 -16.7°
Maximum altitude 18:19:00 10° 171° (S) 1,636 3.3 -16.8°
Drops below altitude 10° 18:19:24 10° 165° (SSE) 1,644 3.3 -16.9°
Enters shadow 18:20:51 - 145° (SE) 1,805 3.3 -17.1°
